Kiana, AK

6:00 AM AKST on December 18, 2017 (GMT -0900)
Baker Memorial

Weather History for PAIK - March, 2013

Change the Weather History Date:

Tuesday, March 26, 2013

  Actual Average (PASK) Record (PASK)
Temperature  
Mean Temperature -8 °F -  
Max Temperature -9 °F 4 °F 24 °F (2005)
Min Temperature -18 °F -6 °F -32 °F (1997)
Degree Days  
Heating Degree Days 74    
Moisture  
Dew Point -17 °F    
Average Humidity 71    
Maximum Humidity 81    
Minimum Humidity 49    
Precipitation  
Precipitation 0.00 in - - ()
Sea Level Pressure  
Sea Level Pressure 30.11 in    
Wind  
Wind Speed 4 mph (SSW)    
Max Wind Speed 8 mph    
Max Gust Speed -    
Visibility 10 miles    
Events Snow    
Averages and records for this station are not official NWS values.
T = Trace of Precipitation, MM = Missing Value Source: NWS Daily Summary

Daily Weather History Graph

Daily Weather History Graph

Search for Another Location

Airport or City:

Trip Planner

Search our weather history database for the weather conditions in past years. The results will help you decide how hot, cold, wet, or windy it might be!

Date:

Astronomy

Mar. 26, 2013 Rise Set
Actual Time 8:15 AM AKDT 9:20 PM AKDT
Civil Twilight 7:21 AM AKDT 10:15 PM AKDT
Nautical Twilight 6:10 AM AKDT 11:27 PM AKDT
Astronomical Twilight 4:36 AM AKDT 1:05 AM AKDT
Moon 9:24 PM AKDT (3/26) 7:42 AM AKDT (3/26)
Length of Visible Light 14h 54m
Length of Day
13h 05m
Full, 100% of the Moon is Illuminated
Mar 26
Full
Mar 27
Full
Apr 2
Last Quarter
Apr 10
New
Apr 18
First Quarter

Hourly Weather History & Observations

Time (AKDT) Temp. Windchill Dew Point Humidity Pressure Visibility Wind Dir Wind Speed Gust Speed Precip Events Conditions
12:01 AM -14.1 °F -26.3 °F -20.9 °F 71% 30.05 in 10.0 mi SSW 4.6 mph - N/A   Clear
1:01 AM -14.1 °F -23.9 °F -20.0 °F 75% 30.06 in 10.0 mi SW 3.5 mph - N/A   Clear
2:01 AM -14.1 °F - -20.9 °F 71% 30.06 in 10.0 mi Calm Calm - N/A   Clear
3:01 AM -14.1 °F -23.9 °F -20.0 °F 75% 30.07 in 10.0 mi SSW 3.5 mph - N/A   Clear
4:01 AM -16.1 °F -26.2 °F -22.0 °F 74% 30.09 in 10.0 mi WSW 3.5 mph - N/A   Clear
5:01 AM -18.0 °F - -23.1 °F 78% 30.10 in 10.0 mi Calm Calm - N/A   Clear
6:01 AM -18.9 °F - -23.1 °F 81% 30.11 in 10.0 mi Calm Calm - N/A   Clear
7:01 AM -18.9 °F - -24.0 °F 78% 30.12 in 10.0 mi Calm Calm - N/A   Clear
8:01 AM -18.9 °F - -25.1 °F 74% 30.13 in 10.0 mi Calm Calm - N/A   Clear
9:01 AM -18.9 °F -35.8 °F -25.1 °F 74% 30.14 in 10.0 mi NNW 6.9 mph - N/A   Clear
10:01 AM -17.0 °F - -22.0 °F 78% 30.16 in 9.0 mi Calm Calm - N/A   Clear
12:01 PM -9.0 °F -18.2 °F -18.0 °F 65% 30.04 in 10.0 mi East 3.5 mph - N/A   Clear
1:01 PM -2.9 °F -11.2 °F -17.0 °F 51% 30.05 in 10.0 mi ENE 3.5 mph - N/A   Clear
2:01 PM 1.0 °F -6.7 °F -14.1 °F 49% 30.06 in 10.0 mi ESE 3.5 mph - N/A   Clear
3:01 PM -0.0 °F -13.0 °F -11.9 °F 57% 30.08 in 10.0 mi SSW 6.9 mph - N/A   Clear
4:01 PM -0.0 °F -14.2 °F -11.0 °F 60% 30.10 in 10.0 mi SW 8.1 mph - N/A   Clear
5:01 PM -0.9 °F -15.3 °F -9.9 °F 66% 30.12 in 10.0 mi SSW 8.1 mph - N/A   Clear
6:01 PM -2.0 °F -16.6 °F -9.9 °F 69% 30.13 in 10.0 mi SSW 8.1 mph - N/A   Partly Cloudy
7:01 PM -2.9 °F -16.5 °F -9.9 °F 72% 30.14 in 10.0 mi SW 6.9 mph - N/A   Clear
8:01 PM -5.1 °F -20.4 °F -11.9 °F 72% 30.14 in 10.0 mi SW 8.1 mph - N/A   Clear
9:01 PM -8.0 °F -21.0 °F -14.1 °F 75% 30.15 in 10.0 mi SSW 5.8 mph - 0.00 in Snow Light Snow
9:54 PM -9.4 °F -22.7 °F -14.8 °F 77% 30.16 in 9.0 mi South 5.8 mph - 0.00 in Snow Light Snow
10:01 PM -9.4 °F -22.7 °F -14.8 °F 77% 30.16 in 9.0 mi SSW 5.8 mph - 0.00 in Snow Light Snow
11:01 PM -9.9 °F -26.3 °F -15.0 °F 78% 30.17 in 9.0 mi WSW 8.1 mph - 0.00 in Snow Light Snow